Glendale Luke AFB, AZ

7:12 PM MST on November 16, 2019 (GMT -0700)
Luke Air Force Base

Weather History for KLUF - September, 2019

Change the Weather History Date:

Friday, September 27, 2019

  Actual Average Record
Temperature  
Mean Temperature 76 °F -  
Max Temperature 85 °F 98 °F 108 °F (1938)
Min Temperature 68 °F 62 °F 44 °F (1920)
Cooling Degree Days 12    
Growing Degree Days 26 (Base 50)    
Moisture  
Dew Point 66 °F    
Average Humidity 74    
Maximum Humidity 100    
Minimum Humidity 43    
Precipitation  
Precipitation 0.15 in - - ()
Sea Level Pressure  
Sea Level Pressure 29.78 in    
Wind  
Wind Speed 3 mph (WSW)    
Max Wind Speed 10 mph    
Max Gust Speed -    
Visibility 10 miles    
Events Rain    
Averages and records for this station are not official NWS values.
T = Trace of Precipitation, MM = Missing Value Source: NWS Daily Summary

Daily Weather History Graph

Daily Weather History Graph

Search for Another Location

Airport or City:

Astronomy

Sep. 27, 2019 Rise Set
Actual Time 6:20 AM MST 6:19 PM MST
Civil Twilight 5:56 AM MST 6:44 PM MST
Nautical Twilight 5:27 AM MST 7:13 PM MST
Astronomical Twilight 4:58 AM MST 7:42 PM MST
Moon 4:55 AM MST (9/27) 6:06 PM MST (9/27)
Length of Visible Light 12h 48m
Length of Day
11h 58m
Waning Crescent, 1% of the Moon is Illuminated
Sep 27
Waning Crescent
Sep 28
New
Oct 5
First Quarter
Oct 13
Full
Oct 21
Last Quarter

Hourly Weather History & Observations

Time (MST) Temp. Heat Index Dew Point Humidity Pressure Visibility Wind Dir Wind Speed Gust Speed Precip Events Conditions
12:28 AM 71.6 °F - 66.2 °F 83% 29.83 in 10.0 mi West 3.5 mph - N/A   Mostly Cloudy
12:58 AM 72.5 °F - 64.8 °F 77% 29.83 in 10.0 mi Calm Calm - N/A   Overcast
1:58 AM 72.1 °F - 65.3 °F 79% 29.83 in 10.0 mi Calm Calm - N/A   Overcast
2:58 AM 72.3 °F - 66.7 °F 83% 29.81 in 10.0 mi NE 3.5 mph - N/A   Overcast
3:58 AM 70.9 °F - 66.7 °F 87% 29.81 in 10.0 mi NNE 6.9 mph - N/A   Overcast
4:48 AM 69.8 °F - 68.0 °F 94% 29.82 in 10.0 mi NNE 10.4 mph - N/A   Light Drizzle
4:58 AM 70.0 °F - 69.6 °F 99% 29.82 in 10.0 mi NNE 10.4 mph - 0.00 in Rain Rain
5:58 AM 68.0 °F - - N/A% 29.83 in 10.0 mi Calm Calm - 0.13 in Rain Light Rain
6:08 AM 69.8 °F - 69.8 °F 100% 29.83 in 9.0 mi Calm Calm - N/A Rain Light Rain
6:37 AM 69.8 °F - 69.8 °F 100% 29.83 in 10.0 mi Calm Calm - N/A   Overcast
6:47 AM 68.0 °F - 68.0 °F 100% 29.83 in 10.0 mi Calm Calm - N/A   Overcast
6:58 AM 69.1 °F - 69.1 °F 100% 29.83 in 10.0 mi Calm Calm - 0.02 in   Mostly Cloudy
7:58 AM 70.5 °F - 70.5 °F 100% 29.83 in 10.0 mi Calm Calm - N/A   Mostly Cloudy
8:58 AM 73.2 °F - 69.1 °F 87% 29.83 in 10.0 mi Calm Calm - 0.00 in   Partly Cloudy
9:58 AM 74.8 °F - 66.7 °F 76% 29.85 in 10.0 mi West 4.6 mph - N/A   Clear
10:58 AM 76.8 °F - 66.2 °F 70% 29.83 in 10.0 mi SW 6.9 mph - N/A   Partly Cloudy
11:58 AM 79.2 °F - 64.9 °F 62% 29.81 in 10.0 mi WSW 6.9 mph - N/A   Clear
12:58 PM 81.1 °F 82.3 °F 62.8 °F 53% 29.78 in 10.0 mi SSW 5.8 mph - N/A   Clear
1:58 PM 82.9 °F 83.5 °F 61.2 °F 48% 29.75 in 10.0 mi WSW 8.1 mph - N/A   Partly Cloudy
2:58 PM 84.4 °F 84.6 °F 60.6 °F 45% 29.72 in 10.0 mi SW 5.8 mph - N/A   Clear
4:56 PM 85.1 °F 85.0 °F 60.1 °F 43% 29.69 in 10.0 mi SW 9.2 mph - N/A   Clear
5:58 PM 83.8 °F 84.0 °F 60.3 °F 45% 29.69 in 10.0 mi SW 8.1 mph - N/A   Clear
6:58 PM 82.2 °F 82.7 °F 60.4 °F 48% 29.70 in 10.0 mi SSW 5.8 mph - N/A   Clear
7:58 PM 81.1 °F 81.9 °F 60.6 °F 50% 29.70 in 10.0 mi SSW 4.6 mph - N/A   Clear
8:58 PM 79.2 °F - 66.7 °F 66% 29.70 in 10.0 mi Calm Calm - N/A   Clear
9:58 PM 77.4 °F - 65.1 °F 66% 29.71 in 10.0 mi West 3.5 mph - N/A   Clear
10:58 PM 77.0 °F - 63.0 °F 62% 29.70 in 10.0 mi Calm Calm - N/A   Clear
11:58 PM 74.7 °F - 66.6 °F 76% 29.69 in 10.0 mi East 3.5 mph - N/A   Clear